#timestamp,LO_Frequency,Hit,StdDev 
1536224415.5,286046992.3,P
1536224435.3,286046992.0,N
1536224455.1,286046991.4,P
1536224475.9,286046989.7,Y
1536224495.7,286046995.7,P
1536224515.6,286046994.9,P
1536224535.4,286046997.4,N
1536224555.2,286046996.8,N
1536224575.1,286046998.0,N
1536224576.0,286046998.0,N
1536224595.8,286046996.3,N
1536224615.6,286046992.1,Y
1536224635.5,286046996.6,P
1536224655.3,286046999.6,N
1536224675.2,286046997.3,N
1536224695.9,286046993.7,Y
1536224715.7,286046997.2,P
1536224735.6,286046998.0,P
1536224755.4,286046995.4,P
1536224775.3,286046995.9,Y
1536224795.1,286046999.6,P
1536224796.0,286046999.6,N
1536224815.8,286046995.4,P
1536224835.7,286046996.2,N
1536224855.5,286046997.6,N
1536224875.3,286046997.2,N
1536224895.2,286046995.2,Y
1536224915.0,286046998.9,P
1536224915.9,286046998.9,N
1536224935.8,286046999.4,N
1536224955.6,286046995.7,Y
1536224975.4,286046995.1,P
1536224995.3,286046996.8,N
1536225015.1,286046997.0,N
1536225035.9,286046993.7,Y
1536225055.7,286046996.5,P
1536225075.5,286046999.5,N
1536225095.4,286046999.2,N
1536225115.2,286046999.2,N
1536225135.0,286046998.6,N
1536225135.9,286046998.6,N
1536225155.8,286046998.9,N
1536225175.6,286046999.6,N
1536225195.4,286046997.8,N
1536225215.3,286046999.2,N
1536225235.1,286046997.5,N
1536225255.9,286046996.2,Y
1536225275.7,286046993.7,P
1536225295.5,286046993.5,N
1536225315.4,286046995.1,N
1536225335.2,286046996.3,N
1536225355.0,286046996.7,N
1536225356.0,286046996.7,N
1536225375.8,286046996.7,N
1536225395.6,286046997.7,N
1536225415.5,286046995.9,N
1536225435.3,286046994.2,Y
1536225455.1,286046997.4,P
1536225475.9,286046998.0,P
1536225495.7,286046995.5,P
1536225515.6,286046996.4,Y
1536225535.4,286046997.2,P
1536225555.2,286046999.0,P
1536225575.1,286046999.3,N
1536225576.0,286046999.3,N
1536225595.8,286046999.0,N
1536225615.6,286046999.6,N
1536225635.5,286046997.7,N
1536225655.3,286046994.2,Y
1536225675.2,286046995.9,P
1536225695.9,286046993.3,P
1536225715.7,286046993.3,P
1536225735.6,286046996.3,N
1536225755.4,286046993.3,Y
1536225775.2,286046996.5,P
1536225795.1,286046999.2,N
1536225796.0,286046999.2,N
1536225815.8,286046996.7,N
1536225835.7,286046995.2,Y
1536225855.5,286046997.0,P
1536225875.3,286046995.7,P
1536225895.2,286046997.4,P
1536225915.0,286046994.9,Y
1536225915.9,286046994.9,P
1536225935.7,286046997.0,P
1536225955.6,286046999.0,N
1536225975.4,286046999.2,N
1536225995.3,286046998.6,N
1536226015.1,286046996.9,N
1536226016.0,286046996.9,N
1536226035.8,286046997.0,N
1536226055.7,286046995.0,Y
1536226075.5,286046998.5,P
1536226095.3,286046999.3,N
1536226115.2,286046999.2,N
1536226135.0,286046999.2,N
1536226135.9,286046999.2,N
1536226155.8,286046999.5,N
1536226175.6,286046999.6,N
1536226195.4,286046996.8,Y
1536226215.3,286046997.5,P
1536226235.1,286046993.3,P
1536226255.8,286046994.4,N
1536226275.7,286046993.7,N
1536226295.5,286046994.5,N
1536226315.4,286046992.1,Y
1536226335.2,286046998.0,P
1536226355.0,286046998.0,N
1536226355.9,286046998.0,N
1536226375.8,286046996.1,Y
1536226395.6,286046999.6,P
1536226415.5,286047000.5,N
1536226435.3,286047000.4,N
1536226455.1,286046998.1,N
1536226475.9,286046999.5,N
1536226495.7,286046996.9,N
1536226515.5,286046995.7,Y
1536226535.4,286046995.4,P
1536226555.2,286046997.8,N
1536226575.1,286046997.6,N
1536226576.0,286046997.6,N
1536226595.8,286046997.4,N
1536226615.6,286046999.5,N
1536226635.5,286046997.1,N
1536226655.3,286046997.5,N
1536226675.2,286046994.9,Y
1536226695.9,286046996.9,P
1536226715.7,286046999.5,N
1536226735.6,286046999.2,N
1536226755.4,286046994.9,Y
1536226775.2,286046999.1,P
1536226795.1,286046997.1,P
1536226796.0,286046997.1,P
1536226815.8,286046997.6,N
1536226835.7,286046997.4,Y
1536226855.5,286046996.9,P
1536226875.3,286046996.6,P
1536226895.2,286046998.8,N
1536226915.0,286046998.7,N
1536226915.9,286046998.7,N
1536226935.7,286047000.7,N
1536226955.6,286046999.0,N
1536226975.4,286046996.8,N
1536226995.3,286046997.0,N
1536227015.1,286046996.6,N
1536227016.0,286046996.6,N
1536227035.8,286046997.1,N
1536227055.7,286046997.1,N
1536227075.5,286046996.5,N
1536227095.3,286046997.3,N
1536227115.2,286046996.6,N
1536227135.0,286046994.9,Y
1536227135.9,286046994.9,P
1536227155.8,286046999.4,N
1536227175.6,286046999.8,N
1536227195.4,286047000.0,N
1536227215.3,286047002.8,N
1536227235.1,286047002.6,N
1536227255.8,286047001.6,N
1536227275.7,286046998.2,N
1536227295.5,286047000.9,N
1536227315.4,286047000.8,N
1536227335.2,286046998.1,N
1536227355.0,286046998.1,N
1536227355.9,286046998.1,N
1536227375.8,286047000.1,N
1536227395.6,286047000.5,N
1536227415.4,286047000.5,N
1536227435.3,286046999.8,N
1536227455.1,286046999.9,N
1536227475.9,286047000.2,N
1536227495.7,286047000.1,N
1536227515.5,286047002.6,N
1536227535.4,286047002.6,N
1536227555.2,286046999.7,N
1536227575.0,286047001.6,N
1536227575.9,286047001.6,N
1536227595.8,286047003.2,N
1536227615.6,286047003.7,N
1536227635.5,286047005.4,N
1536227655.3,286047005.0,N
1536227675.1,286047004.5,N
1536227695.9,286047004.7,N
1536227715.7,286047004.8,N
1536227735.5,286047004.6,N
1536227755.4,286047007.0,Y
1536227775.2,286047005.3,P
1536227795.1,286047006.9,P
1536227796.0,286047006.9,P
1536227815.8,286047008.4,Y
1536227835.6,286047002.3,P
1536227855.5,286047001.6,N
1536227875.3,286047004.3,N
1536227895.1,286047003.1,N
1536227915.9,286047003.5,N
1536227935.7,286047003.2,N
1536227955.6,286047002.9,N
1536227975.4,286047005.7,Y
1536227995.2,286047003.2,P
